Regional Weather Roundup
Issued by NWS Boston, MA

Home | Current Version | Previous Version | Text Only | Print | Product List | Glossary On
Versions: 1 2 3 4 5 6 7 8 9 10 11 12 13 14 15 16 17 18 19 20 21 22 23 24 25 26 27
000
ASUS41 KBOX 230510
RWRBOX

REGIONAL WEATHER ROUNDUP
NATIONAL WEATHER SERVICE TAUNTON MA
1200 AM EST THU NOV 23 2017

NOTE:  "FAIR" INDICATES FEW OR NO CLOUDS BELOW 12,000 FEET WITH NO
SIGNIFICANT WEATHER AND/OR OBSTRUCTIONS TO VISIBILITY.

MAZALL-230600-
EASTERN MASSACHUSETTS

CITY           SKY/WX    TMP DP  RH WIND       PRES   REMARKS
BOSTON         PTCLDY    38  24  57 NW18G25   29.94R WCI  28
BEVERLY        PTCLDY    36  25  64 NW13G21   29.92R WCI  27
LAWRENCE       PTCLDY    38  24  57 NW8G18    29.95R
BEDFORD        CLEAR     36  23  59 NW13G25   29.94R WCI  27
BLUE HILL        N/A     36  25  64 NW15G26   29.91R WCI  27
NORWOOD        PTCLDY    40  26  57 NW10G24   29.95R
MARSHFIELD     PTCLDY    39  27  60 NW10G25   29.93R
PLYMOUTH       CLOUDY    40  28  62 NW22G29   29.93R WCI  30
TAUNTON        CLOUDY    40  31  70 NW5       29.94R
NEW BEDFORD    CLOUDY    39  29  67 NW10G22   29.93R
$$

MAZALL-230600-
CAPE COD AND THE ISLANDS

CITY           SKY/WX    TMP DP  RH WIND       PRES   REMARKS
FALMOUTH       MOCLDY    37  32  81 NW12G21   29.94R WCI  30
HYANNIS        CLOUDY    41  30  65 NW14G24   29.90R
CHATHAM        PTCLDY    41  31  67 NW16G24   29.91R
PROVINCETOWN   PTCLDY    40  30  67 NW23G35   29.92R WCI  30
NANTUCKET      MOCLDY    41  34  76 NW17G25   29.92R
MARTHAS VNYRD  MOCLDY    40  31  70 NW12      29.94R
$$

MAZALL-230600-
CENTRAL AND WESTERN MASSACHUSETTS

CITY           SKY/WX    TMP DP  RH WIND       PRES   REMARKS
WORCESTER      MOCLDY    33  22  63 NW17G23   29.92R WCI  22
FITCHBURG      CLEAR     37  24  59 NW20G26   29.96R WCI  27
ORANGE         PTCLDY    33  24  69 NW13      29.97R WCI  24
SPRINGFIELD    CLEAR     35  20  54 NW13G22   29.99R WCI  27
WESTFIELD      PTCLDY    35  22  58 NW8G22    30.01R WCI  29
NORTH ADAMS    CLOUDY    31  19  61 W8        30.02S WCI  23
PITTSFIELD     CLOUDY    30  19  63 NW17G24   29.98F WCI  18
$$

RIZALL-230600-
RHODE ISLAND

CITY           SKY/WX    TMP DP  RH WIND       PRES   REMARKS
PROVIDENCE     MOCLDY    40  28  62 NW15      29.96R WCI  32
NEWPORT        MOCLDY    40  28  62 NW14      29.95R
BLOCK ISLAND   MOCLDY    39  28  64 NW12G18   29.99R WCI  32
SMITHFIELD     MOCLDY    36  27  69 N18       29.95R WCI  26
WESTERLY       PTCLDY    38  28  67 W3        29.99R
$$

CTZALL-230600-
CONNECTICUT

CITY           SKY/WX    TMP DP  RH WIND       PRES   REMARKS
BRADLEY INTL   PTCLDY    35  21  56 NW10      30.02R WCI  27
HARTFORD       PTCLDY    36  22  56 VRB7      30.03R WCI  30
BRIDGEPORT     CLEAR     37  23  56 NW7       30.06R WCI  32
DANBURY        CLEAR     34  23  64 NW8       30.04S WCI  27
GROTON         CLOUDY    39  25  57 W14       30.00R WCI  31
NEW HAVEN      CLOUDY    38  23  55 N9        30.05R WCI  31
CHESTER        FAIR      36  23  60 NW8G18    30.01R WCI  29
MERIDEN        MOCLDY    36  22  56 N7        30.03R WCI  30
WILLIMANTIC    CLOUDY    39  26  59 NW10G18   29.99R
OXFORD         CLOUDY    33  23  66 NW12G24   30.02R WCI  24
$$

MEZ002-015-021-024-NHZ003-005-008-011-012-014-VTZ005-008-230600-
NORTHERN NEW ENGLAND

CITY           SKY/WX    TMP DP  RH WIND       PRES   REMARKS
PORTLAND ME    PTCLDY    32  29  88 W7        29.86R WCI  26
BANGOR ME      CLOUDY    37  33  85 NW16      29.75R WCI  28
CONCORD NH     CLOUDY    35  24  64 NW24G31   29.93R WCI  23
MANCHESTER NH  PTCLDY    36  21  54 NW21G29   29.93R WCI  25
NASHUA NH      PTCLDY    35  23  61 NW14G25   29.95R WCI  26
PORTSMOUTH NH  PTCLDY    35  25  66 NW10G20   29.88R WCI  28
JAFFREY NH     MOCLDY    33  22  63 VRB5      29.93R WCI  29
KEENE NH       CLOUDY    34  23  64 NW13G18   29.98R WCI  25
BURLINGTON VT  CLOUDY    28  17  63 N17G23    30.09R WCI  16
MT. WASHINGTON SNOWSHWR   7   7 100 NW64        N/A  VSB 1/16WCI -24
$$

NYZ052-076-230600-
EASTERN NEW YORK

CITY           SKY/WX    TMP DP  RH WIND       PRES   REMARKS
ALBANY         CLOUDY    34  23  64 NW14G21   30.08S WCI  25
NEW YORK CITY  CLEAR     37  21  52 NW14G25   30.09R WCI  28
$$

ANZALL-230600-
MARINE OBSERVATIONS

STATION/POSITION TIME  TEMP    WIND        PRES    VSBY  WAVE
                       AIR SEA DIR/SP/G                  HT/PER
                 (UTC) (F)     (DEG/KT/KT) (MB)    (MI)  (FT/S)
BOSTON BUOY      0450   40 51  300/ 23/ 29 1011.5R         4/ 4
BUZZARDS BAY     0400   42     320/ 23/ 25 1014.0R
NANTUCKET SOUND  0450   41 49  320/ 19/ 23 1012.7R         4/ 4
MASS BAY-STELLWA 0404   41 49  320/ 19/ 23 1011.1R         4/ 4
ISLE OF SHOALS   0400   38     290/ 23/ 26 1010.6R
S OF BLOCK IS    NOT AVBL
$$

......................KEY.........................
  SKY/WX - SKY CONDITION/PRESENT WEATHER
  TMP    - TEMPERATURE IN FAHRENHEIT
  DWPT   - DEWPOINT IN FAHRENHEIT
  RH     - RELATIVE HUMIDITY IN PERCENT
  WIND   - DIRECTION AND SPEED IN MPH
  PRES   - MEAN SEA LEVEL PRESSURE IN INCHES OF HG
  WCI    - WIND CHILL INDEX
  VSB    - VISIBILITY IN MILES
  HX     - HEAT INDEX
  TC     - TEMPERATURE IN CELSIUS
  VRB    - VARIABLE WIND DIRECTION
  N/A    - NOT AVAILABLE




USA.gov is the U.S. government's official web portal to all federal, state and local government web resources and services.